GEFSCGP_con_probscp_210.txt.gz
Probability
0 0 0 0 0 0 0 0 0 0 0 0 0 0 0 0 0 1 2 5 5 3 2 3 5 4 5 6 6 5 5 4 4 3 3 2 2 1 0 0 0 0 0 0
0 0 0 0 0 0 0 0 0 0 0 0 0 0 0 0 0 1 2 3 4 3 3 4 5 4 5 6 6 6 6 5 4 3 3 1 1 0 0 0 0 0 0 0
0 0 0 0 0 0 0 0 0 0 0 0 0 0 0 0 0 1 2 3 4 4 4 4 5 5 6 7 7 7 7 6 4 3 2 1 0 0 0 0 0 0 0 0
0 0 0 0 0 0 0 1 1 1 0 0 0 0 0 0 0 1 2 3 5 5 5 5 6 6 8 9 9 8 7 7 6 4 2 1 1 0 0 0 0 0 0 0
0 0 0 0 0 0 1 2 2 1 0 0 0 0 0 0 0 1 3 4 5 5 5 6 8 9 10 11 10 9 8 7 7 5 3 2 2 1 0 0 0 0 0 0
0 0 0 0 0 0 1 2 1 0 0 0 0 0 0 0 0 2 4 5 5 5 7 9 9 9 11 10 9 7 7 6 6 5 4 3 3 2 1 0 0 0 0 0
0 0 0 0 0 0 1 1 1 0 0 0 0 0 0 0 1 4 7 7 6 6 8 10 9 9 10 10 7 4 3 3 4 4 4 3 3 3 2 1 0 0 0 0
0 0 0 0 0 0 0 1 1 0 0 0 0 0 0 0 2 5 8 8 6 6 8 10 10 9 10 10 7 3 2 3 4 4 4 3 3 3 3 1 0 0 0 0
0 0 0 0 0 0 0 0 0 0 0 0 0 0 0 0 2 6 9 8 8 8 7 8 9 9 10 9 6 4 3 4 5 5 4 3 3 3 3 2 1 1 0 0
0 0 0 0 0 0 0 0 0 0 0 0 0 0 0 0 2 5 8 8 9 9 7 7 8 9 7 5 4 3 4 5 6 6 5 4 3 3 3 3 2 1 0 0
0 0 0 0 0 0 0 0 0 0 0 0 0 0 0 0 1 3 5 7 8 8 7 8 9 8 5 3 3 5 7 7 7 7 6 4 4 4 4 4 3 1 0 1
0 0 0 0 0 0 0 0 0 0 0 0 0 0 0 0 1 3 5 6 7 8 10 12 11 9 6 5 7 9 10 10 9 8 7 6 6 7 7 5 4 2 1 2
0 0 0 0 0 0 0 0 0 0 0 0 0 0 1 2 3 5 6 7 7 9 14 15 13 11 9 9 11 13 14 12 11 11 11 10 9 9 9 8 7 5 3 3
0 0 0 0 0 0 0 0 0 0 0 0 0 1 3 4 5 6 8 9 9 10 14 17 15 13 11 11 13 15 15 14 15 16 15 13 11 11 11 11 9 6 3 3
0 0 0 0 0 0 0 1 1 1 0 0 0 2 3 4 4 7 9 11 11 12 15 18 18 17 15 15 18 19 17 17 20 21 19 15 13 12 12 12 10 5 3 2
0 0 0 0 0 0 0 1 2 2 2 2 2 3 4 4 5 7 10 12 14 17 21 24 25 25 23 23 27 28 25 22 24 24 19 14 13 13 12 12 9 5 2 1
0 0 0 0 0 0 0 2 3 5 5 4 4 5 5 7 8 9 10 15 19 22 26 30 33 32 28 28 33 34 31 27 27 24 18 14 14 13 12 10 8 4 2 1
0 0 0 0 0 0 0 1 4 6 6 6 7 9 11 12 14 13 13 17 22 26 28 30 33 32 29 29 33 35 34 32 29 24 18 14 15 14 12 9 7 4 2 2
0 0 0 0 0 0 1 2 4 5 6 9 13 17 21 21 20 18 16 18 23 27 27 27 30 32 33 35 37 38 37 35 31 25 19 17 16 14 10 7 5 3 2 2
0 0 0 0 0 1 3 5 6 5 6 11 18 23 26 25 21 18 19 22 27 31 31 30 32 37 40 43 44 42 39 35 29 23 19 17 15 11 6 4 4 3 2 2
0 0 0 0 0 1 3 7 7 5 6 12 20 24 24 22 20 20 24 28 33 38 40 40 41 43 45 46 47 44 37 30 25 20 17 16 14 9 4 2 3 3 3 2
0 0 0 0 0 1 3 6 6 4 5 12 19 24 22 19 20 24 28 32 37 43 47 48 48 48 47 45 45 42 33 25 22 20 17 16 15 11 6 3 3 3 2 1
0 0 1 2 2 2 3 4 4 5 8 13 17 19 18 18 21 25 30 34 38 42 45 48 49 49 46 43 40 37 29 23 21 21 19 16 15 13 10 6 3 3 1 0
0 1 3 6 6 5 5 6 7 9 13 16 17 16 16 18 21 24 29 34 38 40 41 43 47 46 40 36 35 32 26 23 23 22 19 15 13 12 10 6 3 2 1 0
1 2 5 7 7 7 7 8 11 14 17 20 19 17 17 18 19 21 26 30 34 37 38 39 40 39 34 31 30 29 25 25 25 23 18 14 12 11 8 5 2 1 0 0
0 3 6 7 6 5 5 7 12 17 19 21 21 17 16 16 16 17 22 26 29 33 35 35 35 34 31 28 28 28 25 25 25 24 20 15 12 10 7 4 1 0 0 0

GEFSCGP_con_probscp_216.txt.gz
Probability
0 0 0 0 0 0 0 0 0 0 0 0 0 0 0 0 0 0 1 2 3 2 4 5 5 6 7 8 7 4 4 6 7 7 6 4 3 3 2 1 0 0 0 0
0 0 0 0 0 0 0 0 0 0 0 0 0 0 0 0 0 0 1 3 4 4 5 6 6 7 9 11 9 6 5 7 7 6 5 3 3 3 2 1 0 0 0 0
0 0 0 0 0 0 0 0 0 0 0 0 0 0 0 0 0 0 1 3 5 5 5 6 8 10 11 13 11 9 10 11 9 7 4 2 2 2 1 0 1 1 0 0
0 0 0 0 0 0 0 0 0 0 0 0 0 0 0 0 0 0 1 3 5 6 6 6 7 9 10 11 12 14 16 18 16 12 7 4 2 1 1 1 2 2 2 1
0 0 0 0 0 0 0 0 0 0 0 0 0 0 0 0 0 0 1 3 4 6 6 5 6 7 6 7 11 15 20 24 24 18 13 9 4 2 2 2 3 4 4 3
0 0 0 0 0 0 0 0 1 1 1 0 0 0 0 0 0 0 1 3 4 5 6 6 6 7 6 5 8 13 21 26 25 22 17 13 9 6 5 4 4 4 4 4
0 0 0 0 0 0 0 1 2 3 2 0 0 0 0 0 0 1 3 4 5 5 5 7 8 9 7 7 8 13 21 24 22 21 18 15 12 9 7 5 4 3 3 3
0 0 0 0 0 0 0 0 1 1 1 0 0 0 0 0 1 2 4 6 6 6 6 6 8 9 9 10 12 16 21 22 20 19 18 16 12 9 6 5 4 3 3 3
0 0 0 0 0 0 0 0 0 0 0 0 0 0 0 1 2 3 6 7 8 9 9 7 8 10 12 14 15 17 20 22 21 20 19 16 11 8 6 5 4 3 3 2
0 0 0 0 0 1 1 0 0 0 0 0 0 0 1 2 3 4 6 9 10 11 13 12 11 12 15 17 17 16 18 22 23 20 19 16 11 8 7 6 5 4 4 4
0 0 0 0 0 1 1 0 0 0 0 0 0 1 2 3 3 4 7 10 10 12 17 19 18 19 19 19 19 18 18 22 23 21 21 19 14 11 9 8 7 6 6 6
0 0 0 0 0 0 0 0 0 0 0 0 0 1 3 4 5 6 8 10 10 13 21 25 27 28 26 23 23 22 23 24 25 25 26 24 21 17 14 12 10 9 8 8
0 0 0 0 0 0 0 0 0 0 0 0 0 1 4 7 8 10 12 13 11 15 24 31 35 37 34 31 29 28 29 29 30 31 30 28 25 23 20 18 15 13 11 10
0 0 0 0 0 0 0 0 0 0 1 1 1 2 6 9 11 12 15 16 14 18 28 37 42 45 44 42 39 36 36 36 37 36 33 30 27 26 25 24 21 17 14 13
0 0 0 0 0 0 0 0 0 1 2 2 3 4 7 10 12 13 15 16 17 21 31 41 47 52 54 53 50 46 45 46 45 44 39 35 32 29 28 28 24 19 16 15
0 0 0 0 0 0 0 0 1 3 4 4 4 6 8 11 14 17 18 19 20 24 32 41 49 57 63 62 59 56 54 53 53 53 48 42 37 35 31 28 24 19 16 14
0 0 0 0 0 0 1 2 3 5 6 6 7 8 10 13 18 22 23 23 24 28 35 42 50 61 67 67 63 61 59 57 57 57 51 44 41 39 35 29 26 22 17 14
1 1 0 0 0 0 2 4 5 6 9 10 10 10 11 15 20 24 26 27 30 34 41 47 53 59 65 66 64 63 62 61 59 55 49 44 42 40 36 32 30 25 18 15
2 2 1 0 0 1 3 6 7 8 11 11 10 11 13 16 18 23 30 35 40 45 49 52 53 57 62 65 66 67 67 66 61 54 48 44 41 38 35 34 32 26 19 15
1 1 1 0 1 2 5 7 9 10 11 10 10 11 15 18 20 28 37 43 49 54 56 56 55 59 65 69 72 74 72 70 65 57 50 46 41 35 33 33 30 25 19 15
1 1 1 1 2 4 7 9 9 11 12 11 11 14 20 25 30 36 42 48 54 58 58 59 60 65 70 74 77 79 76 72 69 61 53 48 41 35 32 31 27 21 17 14
2 2 3 3 4 5 7 8 11 15 16 15 15 20 25 30 35 38 42 50 59 61 59 58 62 68 71 72 76 79 77 73 71 65 56 48 42 35 32 30 25 18 14 13
5 6 5 5 6 7 9 11 15 20 22 21 21 24 27 29 32 35 40 51 60 62 60 57 58 62 64 66 69 73 75 74 71 65 57 49 43 37 33 31 26 19 14 13
9 10 9 7 8 11 15 17 19 23 26 25 24 23 24 26 28 31 38 46 54 58 58 56 54 55 56 58 60 63 69 71 67 61 55 49 43 38 34 30 26 20 15 13
11 12 11 9 10 14 18 19 19 22 26 27 25 22 22 24 26 28 32 38 44 48 51 53 52 50 49 51 53 56 61 63 59 54 50 46 42 37 30 25 22 17 12 10
10 12 12 11 12 15 17 17 17 20 25 27 26 24 23 24 25 25 28 33 37 40 44 48 50 47 45 48 51 54 57 57 53 49 46 44 41 35 27 22 17 12 8 6

GEFSCGP_con_probscp_222.txt.gz
Probability
0 0 0 0 0 0 0 0 0 0 0 0 0 0 1 1 1 3 5 7 11 14 17 19 20 23 27 31 35 35 31 25 18 13 10 8 7 6 7 9 10 7 3 2
0 0 0 0 0 0 0 0 0 0 0 0 0 1 2 1 1 2 5 8 12 15 21 24 24 25 28 34 39 39 35 30 24 18 15 12 9 8 8 12 14 11 6 5
0 0 0 0 0 0 1 0 0 0 0 0 0 1 1 1 0 1 4 8 11 15 23 27 27 28 31 35 40 42 41 36 29 24 20 16 13 10 11 17 20 15 10 8
0 0 0 0 0 0 0 0 0 0 0 0 0 0 0 0 0 1 3 7 9 13 20 25 28 30 31 33 38 43 44 40 34 28 22 18 16 14 15 19 20 17 12 10
0 0 0 0 0 0 0 0 0 0 0 0 0 0 0 0 0 0 2 6 9 12 18 23 29 32 30 30 34 43 47 45 39 32 25 20 18 18 18 19 18 17 15 13
0 0 0 0 0 0 0 0 0 0 0 0 0 0 0 0 0 0 2 6 9 13 18 25 31 34 30 28 32 41 49 50 44 36 29 23 20 19 20 19 17 16 16 16
0 0 0 0 0 0 0 0 0 0 0 0 0 0 0 0 1 1 2 6 10 14 19 27 34 36 32 30 33 41 50 53 48 40 32 26 22 19 19 18 16 15 15 15
0 0 0 0 0 0 0 0 0 0 0 0 0 0 0 1 1 2 4 7 11 15 20 27 33 36 35 35 39 47 55 56 51 43 38 33 28 22 19 18 16 14 13 12
0 0 0 0 0 0 0 0 0 0 0 0 0 1 1 1 2 3 5 8 12 16 20 24 29 33 37 41 46 53 60 62 55 49 45 41 35 29 23 20 20 18 17 17
0 0 0 0 0 0 0 0 0 0 0 0 1 1 1 0 1 2 5 9 13 16 20 23 25 30 36 44 52 58 63 65 60 53 49 45 41 36 31 28 27 26 24 23
0 0 0 0 0 0 0 0 0 0 0 0 1 2 1 1 1 3 7 11 15 17 21 25 27 30 37 46 55 62 64 65 61 55 51 48 46 44 40 37 34 31 26 24
0 0 0 0 0 0 0 0 0 0 1 0 1 3 3 3 5 8 12 15 19 20 23 30 33 37 44 50 58 64 65 64 60 56 55 53 52 51 48 43 38 32 27 25
0 0 0 0 0 0 0 0 0 0 0 0 2 5 6 7 11 16 19 21 24 27 30 36 41 48 55 59 63 66 67 65 61 59 60 60 60 58 54 47 41 36 31 30
0 0 0 0 0 0 0 0 0 0 0 1 3 6 9 12 17 22 25 27 30 36 42 44 50 59 65 68 68 67 67 67 66 64 65 67 66 62 56 51 47 43 39 37
0 0 0 0 0 0 0 0 0 0 0 1 4 7 11 15 20 25 28 31 35 42 48 53 60 68 72 72 69 66 67 70 71 70 70 70 67 61 57 54 50 48 45 43
0 0 0 0 0 0 0 0 0 1 1 2 4 7 11 17 23 30 34 37 39 43 50 59 69 77 78 75 71 69 69 72 73 74 72 69 64 60 57 54 51 49 47 45
2 2 1 0 0 0 0 1 1 2 3 4 5 8 13 18 27 38 45 48 48 50 57 66 75 82 81 76 73 71 71 73 75 76 75 70 65 60 55 52 51 49 46 43
5 6 3 0 0 0 2 3 3 4 6 7 8 11 15 20 29 42 51 55 58 63 68 72 74 76 77 75 74 73 74 75 78 79 78 74 67 61 55 52 49 46 42 38
6 7 4 0 0 1 4 5 5 7 11 13 14 16 18 21 29 41 50 56 63 70 73 71 67 67 71 73 75 77 78 79 81 81 79 75 71 64 57 51 45 40 36 34
4 5 3 0 0 2 5 6 6 9 17 21 22 24 26 28 35 45 53 57 64 69 69 65 64 66 70 75 78 80 81 81 81 80 77 75 72 65 57 49 43 38 35 33
1 2 1 0 1 4 7 10 14 22 32 34 32 33 36 40 46 51 54 59 63 65 63 62 65 70 74 78 79 81 82 80 79 79 75 72 70 65 58 51 46 41 38 37
1 2 2 3 6 11 16 21 29 40 45 42 37 36 38 43 48 50 52 57 60 60 61 62 67 72 75 77 78 80 81 81 80 78 74 70 67 64 60 55 51 46 42 40
5 6 7 9 14 20 25 29 34 40 41 36 34 32 32 36 42 45 49 54 55 56 59 64 69 73 75 75 75 77 80 82 81 77 72 68 64 62 60 57 52 48 43 41
6 8 11 15 18 20 23 25 25 27 27 25 26 26 27 32 38 43 47 49 50 51 55 63 70 74 76 74 73 74 76 80 79 75 70 64 61 60 58 54 49 44 41 40
4 7 12 19 21 19 19 20 19 19 20 21 22 25 27 31 35 40 43 44 44 45 50 60 67 70 72 73 70 70 73 75 75 72 65 58 56 56 54 51 44 38 35 34
4 6 12 22 27 24 22 21 19 17 20 22 24 27 30 32 34 37 40 41 42 42 47 57 64 65 67 70 68 67 70 73 72 69 62 54 52 53 51 48 42 34 30 27

GEFSCGP_con_probscp_228.txt.gz
Probability
0 0 0 0 0 0 0 0 0 0 1 3 2 1 0 1 4 7 9 10 10 12 15 17 17 16 13 11 11 9 8 7 6 6 6 5 4 4 5 3 2 0 0 0
0 0 0 0 0 0 0 0 0 0 1 2 2 1 0 2 4 7 8 9 9 12 16 17 16 15 13 13 12 10 9 10 8 6 5 5 4 4 4 4 3 1 1 1
0 0 0 0 0 0 0 0 0 0 1 1 1 0 0 1 4 6 7 8 10 14 17 19 17 16 17 17 15 12 12 13 11 7 6 5 5 4 3 4 4 3 2 2
0 0 0 0 0 0 0 0 0 0 0 0 0 0 0 1 4 6 6 8 12 16 19 19 18 20 22 22 18 14 14 15 14 11 8 7 6 4 3 3 4 4 3 3
0 0 0 0 0 0 1 1 0 0 0 0 0 0 0 1 3 5 6 8 13 18 20 19 18 20 23 23 20 17 17 17 16 13 11 8 5 3 2 2 3 4 3 3
0 0 0 0 0 0 1 1 0 0 0 0 0 0 0 0 2 4 5 8 13 18 19 18 18 21 23 23 21 19 18 17 14 12 10 8 5 3 2 1 2 3 4 4
0 0 0 0 0 0 1 1 0 0 0 0 0 0 1 1 2 3 4 7 12 16 17 17 19 23 25 24 20 19 18 16 13 12 11 9 7 5 4 2 1 2 4 5
0 0 0 0 0 0 0 0 0 0 0 0 0 1 2 3 3 4 5 9 13 15 16 17 19 23 26 26 23 21 21 18 16 15 13 12 10 8 6 3 2 2 3 4
0 0 0 0 0 0 1 0 0 0 0 0 0 1 2 4 5 7 8 11 15 17 17 18 19 20 24 27 27 26 25 23 21 18 16 15 13 12 9 5 3 3 3 3
0 0 0 0 0 0 0 0 0 0 0 0 1 2 2 4 6 7 9 13 17 19 19 20 20 19 21 26 30 31 29 27 25 23 22 21 19 17 13 8 6 6 5 5
0 0 0 0 0 0 0 0 0 0 0 0 1 2 3 5 6 8 10 13 19 22 21 21 21 20 21 26 32 34 32 31 29 28 28 27 26 23 17 11 10 10 9 9
0 0 0 0 0 0 0 0 0 1 0 0 1 2 4 6 7 9 11 15 21 25 24 24 23 22 23 27 31 34 34 35 35 33 32 31 30 25 18 14 14 13 10 7
0 0 0 0 0 0 0 0 0 0 0 1 2 3 4 7 10 11 13 17 22 25 27 27 24 22 24 27 30 33 36 40 42 40 37 34 31 26 20 16 16 13 8 5
0 0 0 0 0 0 0 0 0 0 0 1 2 3 6 10 13 13 13 17 22 24 26 27 24 22 23 27 32 35 40 46 49 47 41 37 34 31 25 20 17 12 7 5
0 0 0 0 0 0 0 1 1 1 2 2 2 3 8 13 17 19 19 22 25 25 25 27 26 23 24 29 36 40 45 52 55 52 46 41 39 37 32 27 21 15 11 11
0 0 0 0 0 0 1 1 3 4 4 4 3 5 11 18 24 25 26 29 31 29 27 27 28 25 25 31 39 44 50 56 58 56 52 47 45 42 37 32 27 23 19 16
0 0 0 0 0 1 1 2 4 7 8 8 8 12 19 25 28 29 30 34 37 34 31 29 28 27 28 34 42 49 54 58 60 59 57 54 50 45 39 35 32 29 24 21
0 0 0 0 0 1 1 3 5 10 13 13 16 23 28 30 30 31 32 35 37 37 36 34 32 30 33 37 44 51 56 58 60 59 58 56 52 46 39 36 34 30 27 24
0 0 0 0 0 1 2 3 5 10 15 18 22 28 31 31 32 33 33 33 33 34 37 37 36 35 37 40 45 50 54 58 59 58 56 54 50 45 40 37 33 29 27 26
0 0 0 0 0 1 3 4 5 8 14 20 23 26 28 29 28 28 30 30 30 32 34 37 38 37 38 42 46 50 54 58 59 55 52 50 47 43 39 37 32 27 25 26
0 0 0 0 0 1 3 6 6 8 13 19 21 23 25 24 22 24 29 32 33 33 34 37 39 40 40 44 48 50 52 55 54 52 50 47 44 40 36 33 30 26 25 26
0 0 0 0 0 0 3 7 7 8 14 17 17 20 23 24 24 27 32 35 35 35 36 39 41 43 44 46 49 50 49 49 48 49 50 47 43 39 33 30 29 27 26 25
0 0 0 1 2 2 4 7 7 9 15 17 16 17 23 27 30 33 35 35 34 36 39 41 42 44 45 47 49 48 45 44 46 49 50 47 43 39 34 30 29 27 25 23
0 0 1 3 5 5 5 7 7 8 12 16 16 17 22 28 32 34 34 32 33 35 38 39 41 42 44 45 46 44 41 41 45 47 46 44 41 38 34 31 28 26 23 21
0 1 3 5 6 7 7 7 7 7 9 13 16 18 22 27 30 30 30 29 29 30 32 33 34 36 38 38 39 37 35 37 42 43 41 40 38 35 31 27 25 22 20 18
0 1 3 6 6 7 6 6 6 6 7 11 16 19 22 25 27 27 27 27 26 26 28 27 28 30 31 32 32 31 30 34 39 39 38 37 37 33 29 25 22 19 16 13